Other Public Products
Issued by NWS Grand Forks, ND

Home | Current Version | Previous Version | Graphics & Text | Print | Product List | Glossary On
Versions: 1 2 3 4 5 6 7 8 9 10 11 12 13 14 15 16 17 18 19 20 21 22 23 24 25 26 27 28 29 30 31 32 33 34 35 36 37 38 39 40 41 42 43 44 45 46 47 48 49 50
000
FPUS83 KFGF 270410
OPUFGF
PRAIRIE TO PINES WEATHER ROUNDUP
NATIONAL WEATHER SERVICE EASTERN NORTH DAKOTA/GRAND FORKS ND
1100 PM CDT SUN MAR 26 2017

 **SATELLITE DATA USED TO AUGMENT SKY COVER AT AUTOMATED STATIONS**
 *****  WEATHER ACROSS EASTERN NORTH DAKOTA  *****

CITY           SKY/WX    TMP DP  RH WIND       PRES   REMARKS
GRAND FORKS    CLOUDY    40  39  97 E5        29.95S
GRAND FORKS AF FOG       30  30 100 CALM      29.95S VSB 1/4
GRAND CITY NWS NOT AVBL
BUXTON         NOT AVBL
DEVILS LAKE    FAIR      34  34 100 SE6       29.93S FOG
FARGO          MOCLDY    36  35  96 CALM      29.94S
WAHPETON ARPT    N/A     32  32 100 CALM      29.95R
$$

 *****  WEATHER ACROSS CENTRAL AND WESTERN NORTH DAKOTA  *****

CITY           SKY/WX    TMP DP  RH WIND       PRES   REMARKS
JAMESTOWN      FAIR      38  35  89 SE5       29.91S
BISMARCK       FAIR      39  34  82 SE7       29.92R
MINOT          FAIR      42  38  85 E9        29.88S
MINOT AFB      MOCLDY    41  38  87 SE6       29.87F
GARRISON         N/A     45  37  73 S9        29.88R
WILLISTON      MOCLDY    38  27  64 N8        29.90R
DICKINSON      MOCLDY    44  30  57 S7        29.87S
HETTINGER      FAIR      39  34  82 S3        29.92R
$$

 *****  OTHER OBSERVATIONS NORTHEAST NORTH DAKOTA  *****

CITY           SKY/WX    TMP DP  RH WIND       PRES   REMARKS
WALHALLA       NOT AVBL
LANGDON        FOG       30  32 100 E3        29.93S VSB<1/4
CAVALIER       FAIR      32  32 100 CALM      29.95S FOG
GRAFTON        FOG       30  30 100 CALM      29.97S VSB<1/4
CANDO          NOT AVBL
FORT TOTTEN      N/A     41  41 100 SE7       29.95
ROLLA          FAIR      36  36 100 S6        29.92R
RUGBY          NOT AVBL
 ***** THE ABOVE OBSERVATIONS ARE NON NWS ARE NOT QUALITY
        CONTROLLED AND MAY MIS-REPORT RAIN FOR SNOW...
$$

 *****  OTHER OBSERVATIONS SOUTHEAST NORTH DAKOTA *****

CITY           SKY/WX    TMP DP  RH WIND       PRES   REMARKS
COOPERSTOWN    FAIR      36  34  93 E5        29.93S
VALLEY CITY    FAIR      36  36 100 CALM      29.94S
OAKES          NOT AVBL
GWINNER        CLEAR     36  36 100 MISG      29.93S
SHEYENNE NWR     N/A     35  35 100 E3        29.95S
BUFFALO        NOT AVBL
WYNDMERE       NOT AVBL
 ***** THE ABOVE OBSERVATIONS ARE NON NWS ARE NOT QUALITY
       CONTROLLED AND MAY MIS-REPORT RAIN FOR SNOW...
$$

  *****  WEATHER ACROSS NORTHERN MINNESOTA  *****

CITY           SKY/WX    TMP DP  RH WIND       PRES   REMARKS
FLAG ISLAND    FAIR      32  30  93 CALM      29.93S
WARROAD        FAIR      32  28  86 CALM      29.94S FOG
ROSEAU         FAIR      34  28  80 CALM      29.94S HAZE
HALLOCK        FOG       30  30 100 CALM      29.95S VSB<1/4
THF RVR FALLS  FOG      N/A N/A N/A N3        29.96S VSB 3/4
HALSTAD          N/A     35  36 100 CALM        N/A
FOSSTON        FAIR      34  34 100 CALM      29.95R FOG
BAUDETTE       FAIR      31  29  92 CALM      29.93S
WASKISH        FAIR      36  32  87 CALM      29.94S
CROOKSTON      FOG       36  36 100 NE3       29.96S VSB 3/4
$$
  *****  WEATHER ACROSS CENTRAL AND WEST MINNESOTA  *****

CITY           SKY/WX    TMP DP  RH WIND       PRES   REMARKS
BEMIDJI        FAIR      34  31  87 CALM      29.93S
PARK RAPIDS    FAIR      40  30  67 SE3       29.92S
WADENA         CLOUDY    37  30  75 CALM      29.93S
DETROIT LAKES  FAIR      37  36  93 NW3       29.95R
MOORHEAD       CLOUDY    37  36  93 CALM      29.95S
FERGUS FALLS   FAIR      39  36  87 CALM      29.98R
ELBOW LAKE     FAIR      37  36  94 NW3       29.95S
MORRIS MN      FAIR      39  36  87 CALM      29.94S
STAPLES        CLOUDY    36  32  87 CALM      29.94R
WHEATON        FAIR      37  36  93 SE3       29.97S
$$
  *****  WEATHER ELSEWHERE ACROSS MINNESOTA  *****

CITY           SKY/WX    TMP DP  RH WIND       PRES   REMARKS
DULUTH         CLOUDY    32  31  96 CALM      29.91F FOG
INTRNTL FALLS  CLOUDY    36  30  79 CALM      29.92F
ELY            FAIR      28  28 100 CALM      29.91F
CLOQUET        FOG       32  30  93 CALM      29.92S VSB 1
BRAINERD       MOCLDY    34  31  88 S3        29.94R
HIBBING        CLOUDY    30  30 100 CALM      29.91S
ALEXANDRIA     CLOUDY    40  34  79 N3        29.94R
SAINT CLOUD    CLOUDY    37  37 100 CALM      29.95R
MINNEAPOLIS    CLOUDY    40  35  83 N5        29.96R
$$

  *****  WEATHER ACROSS SOUTH DAKOTA  *****

CITY           SKY/WX    TMP DP  RH WIND       PRES   REMARKS
SIOUX FALLS    CLOUDY    44  39  82 E3        29.97F
BROOKINGS      NOT AVBL
WATERTOWN      MOCLDY    36  35  96 SE3       29.94R
HURON          FAIR      38  37  97 S5        29.95S
SISSETON         N/A     35  35 100 SW6       29.94S
ABERDEEN       CLOUDY    41  35  79 CALM      29.94R
MITCHELL       CLOUDY    44  38  79 SE3       29.97F
PIERRE         CLOUDY    40  38  93 S6        29.95R
MOBRIDGE       CLOUDY    44  35  70 CALM      29.91R
RAPID CITY     FAIR      32  31  96 CALM      29.94R
$$

  *****  SOME WEATHER IN NEARBY STATES *****

CITY           SKY/WX    TMP DP  RH WIND       PRES   REMARKS
GLASGOW MT     FAIR      40  24  53 NE10      29.87S
GREAT FALLS MT CLOUDY    46  20  35 NE9       29.80F
CHEYENNE WY    FAIR      36  32  85 S6        29.98R
SCOTTSBLUFF NE FAIR      35  30  82 N6        29.96R
OMAHA NE       CLOUDY    48  42  80 N3        29.94F
DES MOINES IA  CLOUDY    46  44  93 N3        29.94F
DAVENPORT IA   CLOUDY    47  46  97 W9        29.92F
CHICAGO IL     CLOUDY    53  49  86 SW8       29.88R
EAU CLAIRE WI  CLOUDY    41  40  96 CALM      29.91R FOG
LA CROSSE WI   CLOUDY    42  40  92 CALM      29.93R
$$

  *****  SOME NATIONAL WEATHER *****

CITY           SKY/WX    TMP DP  RH WIND       PRES   REMARKS
LA GUARDIA NY  DRIZZLE   40  37  89 NE13      30.32F FOG
RALEIGH NC     MOCLDY    66  53  63 S8        30.15F
ATLANTA GA     FAIR      65  55  70 SW3       30.07F
NEW ORLEANS LA FAIR      70  68  93 SE8       29.99F
OKLAHOMA CITY  FAIR      61  55  81 S12       29.71R
ALBUQUERQUE NM FAIR      56  23  27 N6        30.01R
SALT LAKE CITY CLOUDY    51  31  46 SE9       29.94F
LOS ANGELES CA FAIR      58  52  80 W9        30.04R
BOISE ID       CLOUDY    49  34  56 SE10      29.87S
SEATTLE WA     LGT RAIN  47  45  93 S10       29.79R
$$

*** WEATHER ACROSS MANITOBA...SASKATCHEWAN AND ONTARIO ***
                ***ONTARIO***

CITY           SKY/WX    TMP DP  RH WIND       PRES   REMARKS
GERALDTON      PTCLDY    28  27  93 CALM      29.89S
THUNDER BAY    CLOUDY    32  32 100 N2        29.94S
SIOUX LOOKOUT  PTCLDY    27  25  93 CALM      29.90S
TORONTO        DRIZZLE   41  41 100 SE3       29.94F
BIG TROUT LK   CLOUDY    34  25  69 NW13      29.90S WCI  25
PICKLE LAKE    NOT AVBL
DRYDEN         CLEAR     36  32  87 W6        29.91S
KENORA         PTCLDY    34  30  86 W3        29.92S
$$
                *** MANITOBA***

CITY           SKY/WX    TMP DP  RH WIND       PRES   REMARKS
BRANDON        MOCLDY    36  32  87 E9        29.92F
DAUPHIN        CLOUDY    34  32  93 NE7       29.93R
ISLAND LAKE    CLEAR     25  19  80 N7        29.98R WCI  17
PILOT MOUND      N/A     32  32 100 E8          N/A  WCI  25
THE PAS        PTCLDY    25  18  74 N5        30.00S WCI  19
THOMPSON       CLOUDY    23  18  80 N9        30.04S WCI  13
WINNIPEG       CLEAR     34  30  86 NE3       29.97R
LYNN LAKE      MOCLDY    21  16  79 NE3       30.05R
CHURCHILL      FLURRIES  12  10  92 N15       30.06F WCI  -4
GILLAM         FLURRIES  16  10  79 N12       30.03R WCI   3
$$
                ***SASKATCHEWAN***

CITY           SKY/WX    TMP DP  RH WIND       PRES   REMARKS
ESTEVAN        PTCLDY    34  34 100 E6        29.89R
KINDERSLEY     FOG       30  30 100 E10       29.87S VSB 1/4 WCI  21
LLOYDMINSTER   PTCLDY    32  32 100 SE9       29.87R WCI  24
PRINCE ALBERT  PTCLDY    25  23  93 E2        29.97R
REGINA         CLEAR     32  30  93 N8        29.87R WCI  25
YORKTON        PTCLDY    30  30 100 N6        29.89R W



USA.gov is the U.S. government's official web portal to all federal, state and local government web resources and services.